SCP
0 0 0 0 0 0 0 0 0 0 0 0 0 0 0 0 0 0 0 0 0 0 0 0 0 0 0 0 0 0 0 0 0 0 0 0 0 0 0 0 0 0 0 0
0 0 0 0 0 0 0 0 0 0 0 0 0 0 0 0 0 0 0 0 0 0 0 0 0 0 0 0 0 0 0 0 0 0 0 0 0 0 0 0 0 0 0 0
0 0 0 0 0 0 0 0 0 0 0 0 0 0 0 0 0 0 0 0 0 0 0 0 0 0 0 0 0 0 0 0 0 0 0 0 0 0 0 0 0 0 0 0
0 0 0 0 0 0 0 0 0 0 0 0 0 0 0 0 0 0 0 0 0 0 0 0 0 0 0 0 0 0 0 0 0 0 0 0 0 0 0 0 0 0 0 0
0 0 0 0 0 0 0 0 0 0 0 0 0 0 0 0 0 0 0 0 0 0 0 0 0 0 0 0 0 0 0 0 0 0 0 0 0 0 0 0 0 0 0 0
0 0 0 0 0 0 0 0 0 0 0 0 0 0 0 0 0 0 0 0 0 0 0 0 0 0 0 0 0 0 0 0 0 0 0 0 0 0 0 0 0 0 0 0
0 0 0 0 0 0 0 0 0 0 0 0 0 0 0 0 0 0 0 0 0 0 0 0 0 0 0 0 0 0 0 0 0 0 0 0 0 0 0 0 0 0 0 0
0 0 0 0 0 0 0 0 0 0 0 0 0 0 0 0 0 0 0 0 0 0 0 0 0 0 0 0 0 0 0 0 0 0 0 0 0 0 0 0 0 0 0 0
0 0 0 0 0 0 0 0 0 0 0 0 0 0 0 0 0 0 0 0 0 0 0 0 0 0 0 0 0 0 0 0 0 0 0 0 0 0 0 0 0 0 0 0
0 0 0 0 0 0 0 0 0 0 0 0 0 0 0 0 0 0 0 0 0 0 0 0 0 0 0 0 0 0 0 0 0 0 0 0 0 0 0 0 0 0 0 0
0 0 0 0 0 0 0 0 0 0 0 0 0 0 0 0 0 0 0 0 0 0 0 0 0 0 0 0 0 0 0 0 0 0 0 0 0 0 0 0 0 0 0 0
0 0 0 0 0 0 0 0 0 0 0 0 0 0 0 0 0 0 0 0 0 0 0 0 0 0 0 0 0 0 0 0 0 0 0 0 0 0 0 0 0 0 0 0
0 0 0 0 0 -0 0 0 0 0 0 0 0 0 0 0 0 0 0 0 0 0 0 0 0 0 0 0 0 0 0 0 0 0 0 0 0 0 0 0 0 0 0 0
0 0 0 0 0 0 0 0 0 0 0 0 0 0 0 0 0 0 0 0 0 0 0 0 0 0 0 0 0 0 0 0 0 0 0 0 0 0 0 0 0 0 0 0
0 0 0 0 0 0 0 0 0 0 0 0 0 0 0 0 0 0 0 0 0 0 0 0 0 0 0 0 0 0 0 0 0 0 0 0 0 0 0 0 0 0 0 0
0 0 -0 -0 -0 0 0 0 0 0 0 0 0 0 0 0 0 0 0 0 0 0 0 0 0 0 0 0 0 0 0 0 0 0 0 0 0 0 0 0 0 0 0 0
0 0 -0 -0 -0 0 0 0 0 0 0 0 0 0 0 0 0 0 0 0 0 0 0 0 0 0 0 0 0 0 0 0 0 0 0 0 0 0 0 0 0 0 0 0
0 0 -0 -0 -0 0 0 0 0 0 0 0 0 0 0 0 0 0 0 0 0 0 0 0 0 0 0 0 0 0 0 0 0 0 0 0 0 0 0 0 0 0 0 0
0 0 0 0 0 0 0 0 0 0 0 0 0 0 0 0 0 0 0 0 0 0 0 0 0 0 0 0 0 0 0 0 0 0 0 0 0 0 0 0 0 0 0 0
0 0 0 0 0 0 0 0 0 0 0 0 0 0 0 0 0 0 0 0 0 0 0 0 0 0 0 0 0 0 0 0 0 0 0 0 0 0 0 0 0 0 0 0
0 0 0 0 0 0 0 0 0 0 0 0 0 0 0 0 0 0 0 0 0 0 0 0 0 0 0 0 0 0 0 0 0 0 0 0 0 0 0 0 0 0 0 0
0 0 0 0 0 0 0 0 0 0 0 0 0 0 0 0 0 0 0 0 0 0 0 0 0 0 0 0 0 0 0 0 0 0 0 0 0 0 0 0 0 0 0 0
0 0 0 0 0 0 0 0 0 0 0 0 0 0 0 0 0 0 0 0 0 0 0 0 0 0 0 0 0 0 0 0 0 0 0 0 0 0 0 0 0 0 0 0
0 0 0 0 0 0 0 0 0 0 0 0 0 0 0 0 0 0 0 0 0 0 0 0 0 0 0 0 0 0 0 0 0 0 0 0 0 0 0 0 0 0 0 0
0 0 0 0 0 0 0 0 0 0 0 0 0 0 0 0 0 0 0 0 0 0 0 0 0 0 0 0 0 0 0 0 0 0 0 0 0 0 0 0 0 0 0 0
0 0 0 0 0 0 0 0 0 0 0 0 0 0 0 0 0 0 0 0 0 0 0 0 0 0 0 0 0 0 0 0 0 0 0 0 0 0 0 0 0 0 0 0
0 0 0 0 0 0 0 0 0 0 0 0 0 0 0 0 0 0 0 0 0 0 0 0 0 0 0 0 0 0 0 0 0 0 0 0 0 0 0 0 0 0 0 0
Wind_Speed
7 9 7 7 13 12 10 10 10 12 17 17 12 10 10 11 14 15 12 11 10 11 11 11 10 9 7 6 5 6 6 4 3 2 1 2 2 2 3 4 4 4 4 4
5 5 5 8 13 10 8 7 11 15 16 11 10 8 9 11 14 17 14 10 7 6 6 7 8 7 7 6 5 3 2 2 1 1 2 2 2 3 4 4 4 4 5 7
6 7 6 7 5 3 7 10 9 11 14 15 12 10 11 12 16 19 16 11 8 7 5 4 1 2 3 4 4 3 3 4 4 4 4 4 4 5 5 4 4 5 6 6
6 8 5 9 5 4 8 12 10 14 14 10 9 12 15 13 16 18 15 13 11 9 8 5 3 2 1 2 3 4 5 6 5 5 5 5 4 5 4 3 4 4 5 6
2 4 10 11 7 1 7 19 13 12 12 10 12 17 20 11 11 13 15 14 11 7 5 3 1 2 3 4 5 6 6 6 6 5 5 4 3 4 4 4 4 4 4 5
2 2 8 12 8 4 6 14 7 6 13 21 24 23 22 15 14 16 15 12 7 4 6 5 3 4 5 5 5 5 6 6 6 5 4 4 4 3 4 4 4 4 4 4
5 6 12 11 6 7 6 11 11 17 24 27 27 23 24 24 22 18 16 8 3 7 6 5 4 5 6 5 4 5 6 5 6 6 4 4 3 3 4 3 3 3 3 3
3 4 13 7 5 5 12 17 19 24 25 26 27 27 27 25 22 18 13 0 7 8 7 6 5 5 5 4 4 4 4 4 4 5 5 5 4 4 4 4 3 2 2 2
9 11 10 9 12 14 17 21 21 21 24 25 25 27 26 23 19 15 8 4 8 9 9 7 6 6 5 4 5 4 4 4 4 5 5 5 4 3 3 3 2 2 2 2
8 12 13 16 19 14 12 18 22 22 23 23 24 24 22 18 14 9 2 7 8 9 9 7 6 5 4 4 5 4 4 4 4 4 4 5 3 3 2 3 2 2 2 2
9 13 12 12 10 13 18 19 21 21 21 19 19 19 17 14 9 5 7 8 8 8 9 7 5 5 5 5 5 4 3 3 3 4 3 3 3 3 3 2 3 2 2 3
8 9 8 15 12 16 18 20 21 22 18 15 15 15 14 12 12 12 11 11 10 10 8 6 5 5 5 6 5 5 4 3 3 3 3 3 3 4 6 6 8 8 8 7
9 9 10 12 9 13 15 19 21 17 13 13 14 13 13 12 12 12 12 11 10 8 7 6 6 6 7 7 6 6 5 4 3 4 4 4 4 4 5 6 7 9 11 12
8 5 7 7 8 13 15 17 16 13 13 12 11 11 11 11 12 12 11 9 8 7 7 6 6 7 7 7 6 6 5 6 5 2 3 4 4 4 4 5 6 5 8 12
3 1 5 7 8 11 12 13 12 12 12 12 11 11 10 10 10 9 7 6 6 7 7 7 7 7 7 6 6 6 5 4 3 2 3 4 5 5 5 5 6 7 6 7
8 5 4 5 9 10 11 11 11 10 10 9 8 8 7 7 7 8 8 8 7 7 7 6 6 6 7 7 7 6 5 11 10 6 5 5 5 5 5 5 6 6 6 6
5 8 7 9 9 8 8 8 8 8 8 8 7 6 5 6 7 8 7 7 5 5 5 6 7 7 8 7 7 5 5 6 12 8 4 4 4 4 5 5 6 7 6 8
4 5 4 5 6 7 7 7 7 7 7 6 6 6 7 7 6 6 6 6 6 6 6 8 9 5 6 7 5 4 5 5 5 5 5 6 6 5 5 5 7 8 7 9
2 2 2 3 4 4 5 5 5 5 6 5 5 5 5 5 5 4 5 6 6 7 8 9 13 8 7 10 9 4 6 6 6 6 6 9 8 6 6 7 7 8 8 9
2 1 2 3 4 4 4 4 4 4 5 4 4 5 6 6 6 5 5 4 4 6 8 9 8 7 6 8 11 5 6 7 6 6 6 6 7 8 8 9 9 10 10 9
2 1 2 3 3 4 5 4 4 4 4 4 4 4 4 5 5 5 5 5 7 9 9 14 9 7 5 7 10 5 6 6 7 6 7 7 8 9 9 9 10 10 10 10
2 2 3 4 3 3 4 4 4 4 4 4 4 4 5 6 6 5 4 4 8 14 9 8 8 10 12 11 6 6 7 7 7 7 7 8 8 9 9 10 10 10 10 11
3 3 4 4 4 3 3 4 4 3 3 4 5 5 5 5 4 5 6 7 8 13 9 8 13 16 16 8 6 7 7 7 7 7 7 7 7 8 9 10 10 10 10 10
4 5 5 5 4 3 2 2 3 2 3 3 4 4 4 4 4 4 4 10 14 13 7 12 18 17 15 7 6 7 7 7 7 7 6 7 7 7 8 10 10 10 10 12
6 5 5 4 3 2 2 1 2 2 2 3 4 4 4 3 4 5 5 7 13 12 7 12 17 17 10 6 7 7 7 8 8 7 6 7 8 8 9 9 10 10 9 9
5 4 3 3 3 2 1 1 0 1 2 2 3 3 4 4 5 5 5 7 10 11 8 7 8 10 7 7 7 8 8 9 9 8 8 9 9 9 9 10 11 8 8 7
6 4 3 2 2 2 1 1 1 2 2 2 2 4 5 6 6 6 7 6 7 7 7 7 7 7 7 7 8 8 8 8 8 9 9 9 9 9 9 10 9 8 7 7
Wind_Direction
265 281 274 266 267 266 258 251 261 279 287 293 299 298 294 304 311 315 318 326 337 343 347 355 4 13 32 42 46 76 101 124 142 147 82 48 22 19 10 0 350 331 326 346
286 278 299 267 265 268 263 263 271 289 290 283 294 290 295 306 311 309 308 305 310 321 334 348 355 359 10 23 22 29 80 109 113 72 45 24 16 25 14 357 350 7 33 39
290 311 321 279 267 257 285 280 273 282 284 297 309 299 295 299 300 299 299 286 264 249 235 227 239 348 1 2 359 5 24 34 26 16 3 360 21 31 14 5 27 46 38 39
293 345 312 256 272 285 284 282 279 275 279 283 285 285 286 282 282 289 295 285 262 239 227 217 201 170 87 27 12 19 23 20 10 3 354 354 32 36 14 26 49 58 43 39
307 309 284 284 285 347 307 294 285 276 283 286 294 295 293 271 265 284 290 283 267 231 194 170 142 87 76 48 26 18 11 6 1 355 350 2 42 41 35 46 48 57 46 37
140 281 269 265 288 332 305 286 268 272 297 307 312 304 301 306 299 297 292 284 264 156 129 124 106 97 86 59 33 9 353 351 353 351 359 36 50 53 57 58 52 56 51 36
217 232 263 268 307 343 311 280 302 311 312 311 305 298 298 300 298 296 293 296 130 121 117 111 105 102 89 66 27 349 343 355 2 358 14 46 45 46 48 57 59 53 50 30
194 221 258 262 309 277 264 287 306 312 312 310 307 304 303 300 297 295 292 268 124 118 107 84 74 83 79 52 358 343 358 14 14 15 18 34 37 42 41 38 39 22 21 21
205 228 249 276 275 275 289 304 313 315 314 310 307 305 306 303 297 293 290 146 129 122 108 86 66 65 62 20 352 355 18 25 29 31 23 17 27 35 33 25 17 356 357 1
267 267 271 280 285 294 311 321 318 314 310 310 311 316 319 316 308 301 112 116 115 112 102 86 67 50 36 12 3 5 16 19 35 28 19 7 8 22 26 360 336 340 343 327
253 270 284 279 294 327 332 323 319 316 313 315 325 330 333 334 342 31 73 81 84 85 83 74 58 40 21 16 13 7 20 25 33 32 11 2 5 357 351 310 308 324 284 281
246 260 284 299 322 343 332 325 324 320 322 340 350 352 5 21 35 49 56 61 66 68 71 62 47 34 16 12 19 11 18 27 22 15 355 2 1 351 338 328 333 338 330 323
253 285 291 297 326 341 332 329 329 337 1 8 15 24 35 40 42 48 51 52 54 55 52 46 40 30 17 11 18 14 3 11 17 6 353 350 348 332 318 317 322 329 331 328
260 291 302 318 327 335 338 336 343 14 23 22 23 29 38 44 45 46 44 42 41 41 40 38 34 25 12 7 11 8 359 356 357 332 332 327 315 302 297 305 317 318 325 325
283 321 276 292 323 341 344 345 355 11 18 23 28 33 38 43 44 41 36 37 42 42 33 26 21 12 1 358 357 352 345 327 330 318 320 315 308 305 305 308 314 314 313 315
310 312 308 330 342 346 351 356 360 6 14 18 26 32 37 42 42 37 31 31 37 30 16 5 353 347 350 349 343 336 329 334 340 340 332 320 315 314 313 312 309 304 301 302
317 320 330 332 339 345 353 358 358 360 6 12 13 14 22 35 40 34 23 14 13 7 356 350 332 332 341 342 333 326 322 321 329 331 313 306 301 295 294 295 298 298 292 295
239 271 304 321 331 336 348 0 6 6 4 4 11 22 33 37 29 10 357 355 357 350 343 336 326 339 336 327 322 332 332 326 327 325 326 322 316 315 310 302 298 299 299 301
273 300 354 7 359 348 356 1 4 4 7 15 27 31 27 18 4 357 356 3 359 343 325 319 343 358 343 341 360 356 343 339 337 334 330 328 333 323 312 307 306 306 303 302
246 132 77 61 38 22 11 5 15 22 16 15 23 24 17 360 348 348 351 348 331 307 309 330 352 343 338 343 3 358 348 343 338 334 330 327 323 320 319 317 316 312 309 306
232 165 118 96 66 41 33 20 20 24 16 21 31 21 1 344 341 345 351 347 330 335 351 353 348 340 4 11 9 356 348 341 336 331 329 328 326 324 322 320 319 316 311 308
203 170 143 124 109 68 29 18 20 22 19 18 18 10 4 355 348 344 342 325 327 355 9 345 334 12 23 20 358 350 345 340 335 329 327 328 328 327 325 323 320 318 315 310
162 143 130 123 118 103 61 32 21 20 14 7 2 356 348 336 337 349 350 344 342 5 8 338 354 17 20 12 351 345 340 334 326 320 320 321 319 317 317 318 318 318 313 311
129 119 113 112 124 121 86 22 349 338 333 337 343 340 336 338 345 357 352 348 355 9 3 348 0 11 12 358 342 338 333 325 316 311 315 316 313 313 316 319 322 323 323 323
122 123 129 141 144 138 130 303 310 320 344 359 356 352 351 352 356 357 356 356 356 7 0 352 358 358 356 337 336 331 324 319 321 323 319 316 315 317 317 320 324 326 327 328
130 135 142 147 144 149 171 221 308 355 6 9 2 357 1 7 10 6 359 358 357 1 356 343 337 340 335 330 328 325 319 317 321 318 312 312 311 311 312 316 317 316 317 318
120 125 127 124 134 154 153 126 71 25 10 15 11 8 11 13 10 6 1 359 355 349 341 335 331 329 328 327 325 323 320 315 312 311 309 307 304 301 300 302 302 299 296 295